Time,TemperatureF,DewpointF,PressureIn,WindDirection,WindDirectionDegrees,WindSpeedMPH,WindSpeedGustMPH,Humidity,HourlyPrecipIn,Conditions,Clouds,dailyrainin,SoftwareType,DateUTC
2013-08-15 00:04:00,57.9,57.6,30.06,SSE,157,0.0,-999.0,99,-99.99,,,0.00,Acu-Link.com,2013-08-15 05:04:00,
2013-08-15 00:20:00,57.7,57.4,30.06,SE,135,0.0,-999.0,99,-99.99,,,0.00,Acu-Link.com,2013-08-15 05:20:00,
2013-08-15 00:35:00,57.2,56.9,30.06,SW,225,0.0,-999.0,99,-99.99,,,0.00,Acu-Link.com,2013-08-15 05:35:00,
2013-08-15 00:50:00,56.5,56.2,30.06,SSE,157,0.0,-999.0,99,-99.99,,,0.00,Acu-Link.com,2013-08-15 05:50:00,
2013-08-15 01:05:00,55.8,55.5,30.05,WSW,247,0.0,-999.0,99,-99.99,,,0.00,Acu-Link.com,2013-08-15 06:05:00,
2013-08-15 01:20:00,55.4,55.1,30.05,WSW,247,0.0,-999.0,99,-99.99,,,0.00,Acu-Link.com,2013-08-15 06:20:00,
2013-08-15 01:35:00,55.2,54.9,30.04,WSW,247,0.0,-999.0,99,-99.99,,,0.00,Acu-Link.com,2013-08-15 06:35:00,
2013-08-15 01:50:00,54.9,54.6,30.04,WSW,247,0.0,-999.0,99,-99.99,,,0.00,Acu-Link.com,2013-08-15 06:50:00,
2013-08-15 02:05:00,54.9,54.6,30.04,NNE,22,0.0,-999.0,99,-99.99,,,0.00,Acu-Link.com,2013-08-15 07:05:00,
2013-08-15 02:20:00,55.0,54.7,30.05,WNW,292,0.0,-999.0,99,-99.99,,,0.00,Acu-Link.com,2013-08-15 07:20:00,
2013-08-15 02:35:00,55.4,55.1,30.04,WSW,247,0.0,-999.0,99,-99.99,,,0.00,Acu-Link.com,2013-08-15 07:35:00,
2013-08-15 02:51:00,55.9,55.6,30.04,East,90,1.7,-999.0,99,-99.99,,,0.00,Acu-Link.com,2013-08-15 07:51:00,
2013-08-15 03:07:00,55.9,55.6,30.05,East,90,0.0,-999.0,99,-99.99,,,0.00,Acu-Link.com,2013-08-15 08:07:00,
2013-08-15 03:24:00,55.9,55.6,30.05,NNE,22,0.0,-999.0,99,-99.99,,,0.00,Acu-Link.com,2013-08-15 08:24:00,
2013-08-15 03:39:00,55.9,55.6,30.04,North,0,0.0,-999.0,99,-99.99,,,0.00,Acu-Link.com,2013-08-15 08:39:00,
2013-08-15 03:54:00,55.9,55.6,30.04,ESE,112,0.0,-999.0,99,-99.99,,,0.00,Acu-Link.com,2013-08-15 08:54:00,
2013-08-15 04:09:00,55.2,54.9,30.04,South,180,0.0,-999.0,99,-99.99,,,0.00,Acu-Link.com,2013-08-15 09:09:00,
2013-08-15 04:24:00,54.9,54.6,30.05,South,180,0.0,-999.0,99,-99.99,,,0.00,Acu-Link.com,2013-08-15 09:24:00,
2013-08-15 04:39:00,54.1,53.8,30.04,SW,225,0.0,-999.0,99,-99.99,,,0.00,Acu-Link.com,2013-08-15 09:39:00,
2013-08-15 04:54:00,53.8,53.5,30.04,South,180,0.0,-999.0,99,-99.99,,,0.00,Acu-Link.com,2013-08-15 09:54:00,
2013-08-15 05:09:00,53.6,53.3,30.04,NE,45,0.0,-999.0,99,-99.99,,,0.00,Acu-Link.com,2013-08-15 10:09:00,
2013-08-15 05:24:00,53.2,52.9,30.05,South,180,0.0,-999.0,99,-99.99,,,0.00,Acu-Link.com,2013-08-15 10:24:00,
2013-08-15 05:40:00,53.1,52.8,30.05,SW,225,0.0,-999.0,99,-99.99,,,0.00,Acu-Link.com,2013-08-15 10:40:00,
2013-08-15 05:55:00,52.7,52.4,30.05,West,270,0.0,-999.0,99,-99.99,,,0.00,Acu-Link.com,2013-08-15 10:55:00,
2013-08-15 06:10:00,52.7,52.4,30.05,West,270,0.0,-999.0,99,-99.99,,,0.00,Acu-Link.com,2013-08-15 11:10:00,
2013-08-15 06:25:00,52.7,52.4,30.06,NW,315,0.0,-999.0,99,-99.99,,,0.00,Acu-Link.com,2013-08-15 11:25:00,
2013-08-15 06:40:00,52.9,52.6,30.05,ESE,112,0.0,-999.0,99,-99.99,,,0.00,Acu-Link.com,2013-08-15 11:40:00,
2013-08-15 06:55:00,53.1,52.8,30.07,West,270,0.0,-999.0,99,-99.99,,,0.00,Acu-Link.com,2013-08-15 11:55:00,
2013-08-15 07:10:00,54.0,53.7,30.07,NNE,22,0.0,-999.0,99,-99.99,,,0.00,Acu-Link.com,2013-08-15 12:10:00,
2013-08-15 07:25:00,55.0,54.7,30.07,NNW,337,0.0,-999.0,99,-99.99,,,0.00,Acu-Link.com,2013-08-15 12:25:00,
2013-08-15 07:40:00,56.3,56.0,30.08,NE,45,0.0,-999.0,99,-99.99,,,0.00,Acu-Link.com,2013-08-15 12:40:00,
2013-08-15 07:56:00,59.7,59.4,30.07,East,90,0.0,-999.0,99,-99.99,,,0.00,Acu-Link.com,2013-08-15 12:56:00,
2013-08-15 08:26:00,69.3,65.3,30.07,East,90,2.7,-999.0,87,-99.99,,,0.00,Acu-Link.com,2013-08-15 13:26:00,
2013-08-15 08:41:00,66.6,62.9,30.06,East,90,3.7,-999.0,88,-99.99,,,0.00,Acu-Link.com,2013-08-15 13:41:00,
2013-08-15 08:56:00,67.3,63.0,30.07,ESE,112,2.7,-999.0,86,-99.99,,,0.00,Acu-Link.com,2013-08-15 13:56:00,
2013-08-15 09:11:00,68.7,63.7,30.07,NNW,337,1.7,-999.0,84,-99.99,,,0.00,Acu-Link.com,2013-08-15 14:11:00,
2013-08-15 09:26:00,70.3,63.1,30.07,NE,45,3.7,-999.0,78,-99.99,,,0.00,Acu-Link.com,2013-08-15 14:26:00,
2013-08-15 09:41:00,71.6,63.2,30.07,ESE,112,0.0,-999.0,75,-99.99,,,0.00,Acu-Link.com,2013-08-15 14:41:00,
2013-08-15 10:27:00,73.6,64.0,30.07,ESE,112,2.7,-999.0,72,-99.99,,,0.00,Acu-Link.com,2013-08-15 15:27:00,
2013-08-15 10:42:00,75.6,65.1,30.07,ESE,112,3.2,-999.0,70,-99.99,,,0.00,Acu-Link.com,2013-08-15 15:42:00,
2013-08-15 10:57:00,74.8,63.9,30.07,SE,135,1.1,-999.0,69,-99.99,,,0.00,Acu-Link.com,2013-08-15 15:57:00,
2013-08-15 11:12:00,74.8,62.7,30.06,ENE,67,3.2,-999.0,66,-99.99,,,0.00,Acu-Link.com,2013-08-15 16:12:00,
2013-08-15 11:27:00,75.9,61.9,30.06,South,180,2.2,-999.0,62,-99.99,,,0.00,Acu-Link.com,2013-08-15 16:27:00,
2013-08-15 11:42:00,77.4,62.4,30.05,East,90,4.7,-999.0,60,-99.99,,,0.00,Acu-Link.com,2013-08-15 16:42:00,
2013-08-15 11:57:00,78.3,62.8,30.05,SSE,157,2.7,-999.0,59,-99.99,,,0.00,Acu-Link.com,2013-08-15 16:57:00,
2013-08-15 12:12:00,76.8,62.3,30.05,South,180,4.2,-999.0,61,-99.99,,,0.00,Acu-Link.com,2013-08-15 17:12:00,
2013-08-15 12:28:00,78.1,61.6,30.04,ESE,112,5.8,-999.0,57,-99.99,,,0.00,Acu-Link.com,2013-08-15 17:28:00,
2013-08-15 12:58:00,77.2,62.7,30.03,SE,135,2.7,-999.0,61,-99.99,,,0.00,Acu-Link.com,2013-08-15 17:58:00,
2013-08-15 13:28:00,76.6,61.7,30.02,East,90,3.7,-999.0,60,-99.99,,,0.00,Acu-Link.com,2013-08-15 18:28:00,
2013-08-15 13:58:00,78.3,62.8,30.02,ESE,112,3.7,-999.0,59,-99.99,,,0.00,Acu-Link.com,2013-08-15 18:58:00,
2013-08-15 14:28:00,79.2,62.1,30.00,West,270,5.3,-999.0,56,-99.99,,,0.00,Acu-Link.com,2013-08-15 19:28:00,
2013-08-15 14:59:00,79.5,62.4,29.99,West,270,3.2,-999.0,56,-99.99,,,0.00,Acu-Link.com,2013-08-15 19:59:00,
2013-08-15 15:29:00,78.3,62.3,29.99,NE,45,4.2,-999.0,58,-99.99,,,0.00,Acu-Link.com,2013-08-15 20:29:00,
2013-08-15 15:44:00,77.9,61.4,29.99,SSE,157,2.2,-999.0,57,-99.99,,,0.00,Acu-Link.com,2013-08-15 20:44:00,
2013-08-15 15:59:00,78.6,61.6,29.98,NNE,22,3.7,-999.0,56,-99.99,,,0.00,Acu-Link.com,2013-08-15 20:59:00,
2013-08-15 16:14:00,78.1,62.1,29.98,SE,135,2.7,-999.0,58,-99.99,,,0.00,Acu-Link.com,2013-08-15 21:14:00,
2013-08-15 16:44:00,79.0,61.4,29.98,NE,45,3.2,-999.0,55,-99.99,,,0.00,Acu-Link.com,2013-08-15 21:44:00,
2013-08-15 17:15:00,78.3,60.8,29.98,ESE,112,4.2,-999.0,55,-99.99,,,0.00,Acu-Link.com,2013-08-15 22:15:00,
2013-08-15 17:30:00,77.5,61.0,29.97,NE,45,4.2,-999.0,57,-99.99,,,0.00,Acu-Link.com,2013-08-15 22:30:00,
2013-08-15 17:45:00,80.1,61.4,29.98,NNE,22,3.2,-999.0,53,-99.99,,,0.00,Acu-Link.com,2013-08-15 22:45:00,
2013-08-15 18:15:00,77.5,60.5,29.97,NE,45,3.2,-999.0,56,-99.99,,,0.00,Acu-Link.com,2013-08-15 23:15:00,
2013-08-15 18:45:00,74.3,61.3,29.98,NNE,22,1.7,-999.0,64,-99.99,,,0.00,Acu-Link.com,2013-08-15 23:45:00,
2013-08-15 19:00:00,73.4,62.2,29.98,NW,315,3.2,-999.0,68,-99.99,,,0.00,Acu-Link.com,2013-08-16 00:00:00,
2013-08-15 19:16:00,72.3,62.4,29.98,NNE,22,0.0,-999.0,71,-99.99,,,0.00,Acu-Link.com,2013-08-16 00:16:00,
2013-08-15 19:31:00,71.4,62.7,29.99,ESE,112,2.2,-999.0,74,-99.99,,,0.00,Acu-Link.com,2013-08-16 00:31:00,
2013-08-15 19:46:00,70.2,62.6,29.99,NNE,22,0.0,-999.0,77,-99.99,,,0.00,Acu-Link.com,2013-08-16 00:46:00,
2013-08-15 20:01:00,69.1,63.0,30.00,ENE,67,0.0,-999.0,81,-99.99,,,0.00,Acu-Link.com,2013-08-16 01:01:00,
2013-08-15 20:46:00,66.0,63.9,30.01,WNW,292,0.0,-999.0,93,-99.99,,,0.00,Acu-Link.com,2013-08-16 01:46:00,
2013-08-15 21:01:00,65.1,63.9,30.01,NW,315,0.0,-999.0,96,-99.99,,,0.00,Acu-Link.com,2013-08-16 02:01:00,
2013-08-15 21:16:00,64.4,64.1,30.01,NNE,22,0.0,-999.0,99,-99.99,,,0.00,Acu-Link.com,2013-08-16 02:16:00,
2013-08-15 21:31:00,63.9,63.6,30.01,North,0,0.0,-999.0,99,-99.99,,,0.00,Acu-Link.com,2013-08-16 02:31:00,
2013-08-15 21:47:00,63.5,63.2,30.02,WSW,247,0.0,-999.0,99,-99.99,,,0.00,Acu-Link.com,2013-08-16 02:47:00,
2013-08-15 22:02:00,63.0,62.7,30.02,ENE,67,0.0,-999.0,99,-99.99,,,0.00,Acu-Link.com,2013-08-16 03:02:00,
2013-08-15 22:17:00,62.4,62.1,30.02,North,0,0.0,-999.0,99,-99.99,,,0.00,Acu-Link.com,2013-08-16 03:17:00,
2013-08-15 22:32:00,61.9,61.6,30.02,West,270,0.0,-999.0,99,-99.99,,,0.00,Acu-Link.com,2013-08-16 03:32:00,
2013-08-15 22:47:00,61.3,61.0,30.02,SW,225,0.0,-999.0,99,-99.99,,,0.00,Acu-Link.com,2013-08-16 03:47:00,
2013-08-15 23:02:00,60.8,60.5,30.02,NW,315,0.0,-999.0,99,-99.99,,,0.00,Acu-Link.com,2013-08-16 04:02:00,
2013-08-15 23:17:00,60.3,60.0,30.02,NNE,22,0.0,-999.0,99,-99.99,,,0.00,Acu-Link.com,2013-08-16 04:17:00,
2013-08-15 23:32:00,59.9,59.6,30.04,North,0,0.0,-999.0,99,-99.99,,,0.00,Acu-Link.com,2013-08-16 04:32:00,
2013-08-15 23:47:00,59.9,59.6,30.03,West,270,0.0,-999.0,99,-99.99,,,0.00,Acu-Link.com,2013-08-16 04:47:00,